Location: Fort Wayne
(41.1310°N, 85.1290°W)
Time: 03:17:30
(UTC-04:00)

Helios 1B - Visible Passes

Search period start: 23 May 2015 00:00
Search period end: 02 June 2015 00:00
Orbit: 624 x 625 km, 98.1° (Epoch: 22 May)

Date Brightness Start Highest point End Pass type
(mag) Time Alt. Az. Time Alt. Az. Time Alt. Az.
23 May 6.6 01:33:43 19° WNW 01:33:43 19° WNW 01:35:54 10° NW visible
24 May 5.0 00:15:19 52° NE 00:15:19 52° NE 00:19:13 10° N visible
24 May 7.1 01:52:34 12° WNW 01:52:34 12° WNW 01:53:34 10° WNW visible
25 May 4.8 00:34:10 67° N 00:34:10 67° N 00:37:58 10° NNW visible
25 May 6.7 23:15:45 13° ENE 23:16:31 14° ENE 23:18:49 10° NNE visible
26 May 5.2 00:53:01 50° WNW 00:53:01 50° WNW 00:56:36 10° NNW visible
26 May 6.2 23:34:36 20° ENE 23:35:02 21° ENE 23:38:21 10° NNE visible
27 May 5.9 01:11:52 33° WNW 01:11:52 33° WNW 01:15:04 10° NNW visible
27 May 5.7 23:53:27 31° ENE 23:53:37 31° ENE 23:57:29 10° N visible
28 May 6.5 01:30:43 21° WNW 01:30:43 21° WNW 01:33:17 10° NW visible
29 May 5.0 00:12:18 49° ENE 00:12:18 49° ENE 00:16:26 10° N visible
29 May 6.9 01:49:33 14° WNW 01:49:33 14° WNW 01:51:05 10° WNW visible
30 May 4.6 00:31:09 74° NNE 00:31:09 74° NNE 00:35:12 10° N visible
30 May 6.8 23:12:44 12° ENE 23:13:47 13° ENE 23:15:48 10° NE visible
31 May 4.9 00:50:00 58° WNW 00:50:00 58° WNW 00:53:51 10° NNW visible
31 May 6.3 23:31:35 18° E 23:32:18 19° ENE 23:35:27 10° NNE visible
01 Jun 5.6 01:08:50 37° WNW 01:08:50 37° WNW 01:12:20 10° NNW visible
01 Jun 5.8 23:50:26 28° E 23:50:50 29° ENE 23:54:38 10° N visible
